This is the latest recevied weather packets stored in our database for station/object WA1TYB-13. If no packets are shown the sender has not sent any weather packets the latest 10 day(s).
| Time | Temp. | Humidity | Pressure | Rain* | Wind** | Luminosity | Snow |
|---|---|---|---|---|---|---|---|
| 1778053844 | -1.67° C | 72% | 1021.6 hPa | 0 mm | - | 0 W/m² | - |
| 1778053542 | -1.11° C | 71% | 1021.8 hPa | 0 mm | - | 0 W/m² | - |
| 1778053238 | -1.11° C | 71% | 1021.6 hPa | 0 mm | - | 0 W/m² | - |
| 1778052936 | -1.11° C | 72% | 1021.7 hPa | 0 mm | - | 0 W/m² | - |
| 1778052633 | -1.67° C | 72% | 1021.8 hPa | 0 mm | - | 0 W/m² | - |
| 1778052331 | -1.11° C | 71% | 1021.7 hPa | 0 mm | - | 0 W/m² | - |
| 1778052028 | -1.11° C | 71% | 1022 hPa | 0 mm | - | 0 W/m² | - |
| 1778051726 | -1.11° C | 70% | 1021.7 hPa | 0 mm | - | 0 W/m² | - |
| 1778051423 | -0.56° C | 71% | 1022 hPa | 0 mm | - | 0 W/m² | - |
| 1778051120 | -1.11° C | 71% | 1022 hPa | 0 mm | - | 0 W/m² | - |
| 1778050817 | -0.56° C | 70% | 1022.1 hPa | 0 mm | - | 0 W/m² | - |
| 1778050515 | -0.56° C | 69% | 1022.1 hPa | 0 mm | - | 0 W/m² | - |
| 1778050211 | 0° C | 68% | 1021.7 hPa | 0 mm | - | 0 W/m² | - |
| 1778049908 | 0° C | 68% | 1021.7 hPa | 0 mm | - | 0 W/m² | - |
| 1778049603 | 0° C | 70% | 1021.8 hPa | 0 mm | - | 0 W/m² | - |
| 1778049302 | -0.56° C | 71% | 1022 hPa | 0 mm | - | 0 W/m² | - |
| 1778048999 | -0.56° C | 70% | 1021.6 hPa | 0 mm | - | 0 W/m² | - |
| 1778048697 | -0.56° C | 70% | 1021.7 hPa | 0 mm | - | 0 W/m² | - |
| 1778048394 | 0° C | 69% | 1021.6 hPa | 0 mm | - | 0 W/m² | - |
| 1778048090 | 0° C | 69% | 1021.6 hPa | 0 mm | - | 0 W/m² | - |
| 1778047788 | 0° C | 69% | 1021.5 hPa | 0 mm | - | 0 W/m² | - |
| 1778047486 | 0° C | 69% | 1021.6 hPa | 0 mm | - | 0 W/m² | - |
| 1778047182 | 0° C | 68% | 1021.6 hPa | 0 mm | - | 0 W/m² | - |
| 1778046880 | 0° C | 67% | 1021.5 hPa | 0 mm | - | 0 W/m² | - |
| 1778046576 | 0.56° C | 66% | 1021.7 hPa | 0 mm | - | 0 W/m² | - |
* Rain latest hour (hover to see other rain measurements)
** Current wind speed in m/s (hover to see current wind gust speed)